TimeCST,TemperatureF,Dew PointF,Humidity,Sea Level PressureIn,VisibilityMPH,Wind Direction,Wind SpeedMPH,Gust SpeedMPH,PrecipitationIn,Events,Conditions,WindDirDegrees,DateUTC
12:15 AM,23.9,22.3,94,30.21,10.0,Calm,Calm,-,N/A,,Clear,0,2012-11-04 05:15:00
12:35 AM,22.6,21.4,95,30.21,10.0,Calm,Calm,-,N/A,,Clear,0,2012-11-04 05:35:00
12:55 AM,24.8,23.9,96,30.21,10.0,Calm,Calm,-,N/A,,Clear,0,2012-11-04 05:55:00
1:15 AM,24.8,23.5,95,30.21,10.0,Calm,Calm,-,N/A,,Clear,0,2012-11-04 06:15:00
1:35 AM,22.6,22.1,98,30.21,10.0,Calm,Calm,-,N/A,,Clear,0,2012-11-04 06:35:00
1:15 AM,24.6,23.2,94,30.22,10.0,Calm,Calm,-,N/A,,Clear,0,2012-11-04 07:15:00
1:35 AM,24.6,23.0,94,30.22,10.0,Calm,Calm,-,N/A,,Clear,0,2012-11-04 07:35:00
1:55 AM,22.8,21.4,94,30.22,10.0,Calm,Calm,-,N/A,,Clear,0,2012-11-04 07:55:00
2:15 AM,23.9,22.3,94,30.22,10.0,NE,3.5,-,N/A,,Clear,40,2012-11-04 08:15:00
2:35 AM,23.5,21.9,94,30.22,10.0,Calm,Calm,-,N/A,,Clear,0,2012-11-04 08:35:00
2:55 AM,21.4,20.3,96,30.22,10.0,Calm,Calm,-,N/A,,Clear,0,2012-11-04 08:55:00
3:15 AM,21.9,20.5,94,30.22,10.0,Calm,Calm,-,N/A,,Clear,0,2012-11-04 09:15:00
3:35 AM,21.4,20.1,95,30.22,10.0,Calm,Calm,-,N/A,,Clear,0,2012-11-04 09:35:00
3:55 AM,19.6,18.5,96,30.22,10.0,Calm,Calm,-,N/A,,Clear,0,2012-11-04 09:55:00
4:15 AM,21.2,20.3,96,30.23,10.0,Calm,Calm,-,N/A,,Clear,0,2012-11-04 10:15:00
4:35 AM,21.6,20.3,95,30.23,10.0,NE,3.5,-,N/A,,Clear,40,2012-11-04 10:35:00
4:55 AM,21.9,20.7,95,30.23,10.0,NNE,3.5,-,N/A,,Clear,30,2012-11-04 10:55:00
5:15 AM,21.6,19.6,92,30.23,10.0,Calm,Calm,-,N/A,,Clear,0,2012-11-04 11:15:00
5:35 AM,21.0,20.1,96,30.22,10.0,Calm,Calm,-,N/A,,Clear,0,2012-11-04 11:35:00
6:15 AM,19.6,18.7,96,30.22,10.0,Calm,Calm,-,N/A,,Clear,0,2012-11-04 12:15:00
6:35 AM,20.7,19.8,96,30.24,10.0,Calm,Calm,-,N/A,,Clear,0,2012-11-04 12:35:00
6:55 AM,20.3,19.4,96,30.24,10.0,Calm,Calm,-,N/A,,Clear,0,2012-11-04 12:55:00
7:15 AM,20.1,19.0,96,30.24,10.0,Calm,Calm,-,N/A,,Clear,0,2012-11-04 13:15:00
7:35 AM,23.0,21.7,95,30.24,10.0,NE,3.5,-,N/A,,Clear,40,2012-11-04 13:35:00
7:55 AM,24.6,23.0,94,30.24,10.0,NE,3.5,-,N/A,,Clear,40,2012-11-04 13:55:00
8:15 AM,26.2,24.4,93,30.24,10.0,NNE,3.5,-,N/A,,Clear,30,2012-11-04 14:15:00
8:35 AM,27.7,25.3,91,30.24,10.0,NE,3.5,-,N/A,,Clear,50,2012-11-04 14:35:00
8:55 AM,29.1,25.7,87,30.24,10.0,NE,4.6,-,N/A,,Clear,40,2012-11-04 14:55:00
9:15 AM,29.8,25.9,85,30.24,10.0,NNE,5.8,-,N/A,,Clear,30,2012-11-04 15:15:00
9:35 AM,30.2,25.0,81,30.24,10.0,North,4.6,-,N/A,,Clear,10,2012-11-04 15:35:00
9:55 AM,30.2,25.0,81,30.24,10.0,NNE,4.6,-,N/A,,Scattered Clouds,30,2012-11-04 15:55:00
10:15 AM,31.1,25.2,79,30.24,10.0,North,4.6,-,N/A,,Mostly Cloudy,360,2012-11-04 16:15:00
10:35 AM,32.0,24.6,74,30.24,10.0,North,6.9,-,N/A,,Mostly Cloudy,360,2012-11-04 16:35:00
10:55 AM,31.8,24.8,75,30.22,10.0,NNE,5.8,-,N/A,,Overcast,20,2012-11-04 16:55:00
11:15 AM,32.0,24.8,75,30.22,10.0,NNE,6.9,-,N/A,,Overcast,20,2012-11-04 17:15:00
11:35 AM,32.2,24.8,74,30.22,10.0,NE,5.8,-,N/A,,Overcast,40,2012-11-04 17:35:00
11:55 AM,32.4,25.0,74,30.21,10.0,NE,4.6,-,N/A,,Overcast,50,2012-11-04 17:55:00
12:15 PM,32.7,24.8,73,30.21,10.0,NE,4.6,-,N/A,,Scattered Clouds,40,2012-11-04 18:15:00
12:35 PM,33.3,25.0,72,30.21,10.0,NE,5.8,-,N/A,,Scattered Clouds,50,2012-11-04 18:35:00
12:55 PM,33.8,25.0,70,30.20,10.0,Calm,Calm,-,N/A,,Scattered Clouds,0,2012-11-04 18:55:00
1:15 PM,34.5,25.5,70,30.20,10.0,NE,6.9,-,N/A,,Clear,50,2012-11-04 19:15:00
1:35 PM,34.9,25.2,68,30.19,10.0,NE,4.6,-,N/A,,Clear,50,2012-11-04 19:35:00
1:55 PM,35.6,25.2,66,30.19,10.0,NE,4.6,-,N/A,,Clear,50,2012-11-04 19:55:00
2:15 PM,34.9,24.8,67,30.18,10.0,ENE,5.8,-,N/A,,Clear,70,2012-11-04 20:15:00
2:35 PM,34.9,24.1,65,30.19,10.0,East,5.8,-,N/A,,Clear,80,2012-11-04 20:35:00
2:55 PM,34.9,23.9,64,30.18,10.0,ENE,3.5,-,N/A,,Clear,60,2012-11-04 20:55:00
3:15 PM,35.1,24.3,65,30.18,10.0,ENE,5.8,-,N/A,,Clear,60,2012-11-04 21:15:00
3:35 PM,34.7,24.1,65,30.18,10.0,ENE,5.8,-,N/A,,Clear,60,2012-11-04 21:35:00
3:55 PM,33.8,23.7,67,30.18,10.0,ENE,4.6,-,N/A,,Clear,70,2012-11-04 21:55:00
4:15 PM,32.9,23.7,69,30.18,10.0,ENE,4.6,-,N/A,,Clear,60,2012-11-04 22:15:00
4:35 PM,31.3,24.1,75,30.19,10.0,NE,4.6,-,N/A,,Clear,50,2012-11-04 22:35:00
4:55 PM,30.6,24.4,78,30.19,10.0,NE,3.5,-,N/A,,Clear,50,2012-11-04 22:55:00
5:15 PM,30.2,25.3,82,30.19,10.0,NE,3.5,-,N/A,,Clear,50,2012-11-04 23:15:00
5:35 PM,30.0,25.2,82,30.19,10.0,NE,4.6,-,N/A,,Clear,40,2012-11-04 23:35:00
5:55 PM,28.4,24.8,86,30.19,10.0,ENE,3.5,-,N/A,,Clear,60,2012-11-04 23:55:00
6:15 PM,28.6,24.4,84,30.19,10.0,NNE,4.6,-,N/A,,Clear,20,2012-11-05 00:15:00
6:35 PM,27.0,24.3,90,30.20,10.0,NNE,3.5,-,N/A,,Clear,30,2012-11-05 00:35:00
6:55 PM,28.0,25.7,91,30.20,10.0,NE,4.6,-,N/A,,Clear,40,2012-11-05 00:55:00
7:15 PM,27.9,25.0,89,30.20,10.0,NE,3.5,-,N/A,,Clear,40,2012-11-05 01:15:00
7:35 PM,26.6,24.6,92,30.19,10.0,NE,5.8,-,N/A,,Clear,50,2012-11-05 01:35:00
7:55 PM,27.5,24.1,87,30.20,10.0,ENE,5.8,-,N/A,,Clear,60,2012-11-05 01:55:00
8:15 PM,26.1,22.5,86,30.20,10.0,ENE,6.9,-,N/A,,Clear,60,2012-11-05 02:15:00
8:35 PM,25.9,22.1,86,30.20,10.0,NE,5.8,-,N/A,,Clear,50,2012-11-05 02:35:00
8:55 PM,25.7,22.5,88,30.20,10.0,ENE,5.8,-,N/A,,Clear,60,2012-11-05 02:55:00
9:15 PM,25.7,22.5,88,30.20,10.0,NE,4.6,-,N/A,,Clear,50,2012-11-05 03:15:00
9:35 PM,26.2,22.3,85,30.20,10.0,NE,4.6,-,N/A,,Clear,50,2012-11-05 03:35:00
9:55 PM,26.2,23.2,88,30.20,10.0,ENE,3.5,-,N/A,,Clear,60,2012-11-05 03:55:00
10:15 PM,25.5,21.7,86,30.20,10.0,Calm,Calm,-,N/A,,Clear,0,2012-11-05 04:15:00
10:35 PM,23.5,21.2,91,30.20,10.0,Calm,Calm,-,N/A,,Clear,0,2012-11-05 04:35:00